This is the latest recevied weather packets stored in our database for station/object EA1FBN. If no packets are shown the sender has not sent any weather packets the latest 10 day(s).
| Time | Temp. | Humidity | Pressure | Rain* | Wind** | Luminosity | Snow |
|---|---|---|---|---|---|---|---|
| 1787833453 | 17.22° C | 61% | 1011.4 hPa | 0 mm | - | - | - |
| 1787833154 | 18.33° C | 57% | 1011.3 hPa | 0 mm | - | - | - |
| 1787832854 | 18.33° C | 53% | 1011.3 hPa | 0 mm | - | - | - |
| 1787832554 | 18.33° C | 52% | 1011 hPa | 0 mm | - | - | - |
| 1787832254 | 18.33° C | 51% | 1011 hPa | 0 mm | - | - | - |
| 1787831954 | 18.33° C | 52% | 1011.1 hPa | 0 mm | - | - | - |
| 1787831654 | 18.89° C | 51% | 1011 hPa | 0 mm | - | - | - |
| 1787831354 | 18.89° C | 55% | 1011 hPa | 0 mm | - | - | - |
| 1787831054 | 18.33° C | 55% | 1011 hPa | 0 mm | - | - | - |
| 1787830754 | 18.33° C | 54% | 1011 hPa | 0 mm | - | - | - |
| 1787830454 | 18.33° C | 54% | 1011.1 hPa | 0 mm | - | - | - |
| 1787830154 | 18.33° C | 56% | 1011.2 hPa | 0 mm | - | - | - |
| 1787829854 | 17.78° C | 55% | 1011.2 hPa | 0 mm | - | - | - |
| 1787829554 | 17.78° C | 55% | 1011.2 hPa | 0 mm | - | - | - |
| 1787829254 | 18.33° C | 55% | 1011.1 hPa | 0.25 mm | - | - | - |
| 1787828954 | 18.33° C | 54% | 1011.1 hPa | 0.25 mm | - | - | - |
| 1787828654 | 18.33° C | 54% | 1011.2 hPa | 0.25 mm | - | - | - |
| 1787828354 | 18.89° C | 54% | 1011.2 hPa | 0.25 mm | - | - | - |
| 1787828054 | 18.33° C | 54% | 1011.3 hPa | 0.25 mm | - | - | - |
| 1787827754 | 18.89° C | 53% | 1011.3 hPa | 0.25 mm | - | - | - |
| 1787827454 | 18.89° C | 54% | 1011.4 hPa | 0.25 mm | - | - | - |
| 1787827154 | 18.89° C | 57% | 1011.3 hPa | 0.25 mm | - | - | - |
| 1787826854 | 18.89° C | 56% | 1011.3 hPa | 0.25 mm | - | - | - |
| 1787826554 | 18.33° C | 57% | 1011.3 hPa | 0.25 mm | - | - | - |
| 1787826254 | 18.33° C | 60% | 1011.5 hPa | 0.25 mm | - | - | - |
* Rain latest hour (hover to see other rain measurements)
** Current wind speed in m/s (hover to see current wind gust speed)